TimePST,TemperatureF,Dew PointF,Humidity,Sea Level PressureIn,VisibilityMPH,Wind Direction,Wind SpeedMPH,Gust SpeedMPH,PrecipitationIn,Events,Conditions,WindDirDegrees,DateUTC
12:43 AM,42.8,39.2,87,30.22,10.0,NE,4.6,-,N/A,,Scattered Clouds,40,2013-02-04 08:43:00
12:56 AM,42.1,39.9,92,30.22,10.0,Calm,Calm,-,N/A,,Partly Cloudy,0,2013-02-04 08:56:00
2:56 AM,39.9,39.0,97,30.21,10.0,Calm,Calm,-,N/A,,Clear,0,2013-02-04 10:56:00
3:56 AM,41.0,39.9,96,30.19,10.0,Calm,Calm,-,N/A,,Clear,0,2013-02-04 11:56:00
4:56 AM,39.9,39.0,97,30.19,10.0,Calm,Calm,-,N/A,,Clear,0,2013-02-04 12:56:00
5:56 AM,41.0,39.0,93,30.17,10.0,East,5.8,-,N/A,,Clear,80,2013-02-04 13:56:00
6:56 AM,39.9,39.0,97,30.17,10.0,Calm,Calm,-,N/A,,Clear,0,2013-02-04 14:56:00
7:56 AM,39.9,39.0,97,30.17,10.0,East,3.5,-,N/A,,Clear,90,2013-02-04 15:56:00
8:56 AM,45.0,43.0,93,30.19,10.0,Calm,Calm,-,N/A,,Clear,0,2013-02-04 16:56:00
9:07 AM,46.4,44.6,93,30.18,6.0,Calm,Calm,-,N/A,,Scattered Clouds,0,2013-02-04 17:07:00
9:16 AM,46.4,44.6,93,30.18,6.0,Calm,Calm,-,N/A,,Mostly Cloudy,0,2013-02-04 17:16:00
9:56 AM,46.9,45.0,93,30.18,6.0,SSE,3.5,-,N/A,,Overcast,150,2013-02-04 17:56:00
10:25 AM,46.4,44.6,93,30.18,9.0,South,4.6,-,N/A,,Scattered Clouds,170,2013-02-04 18:25:00
10:56 AM,48.0,44.1,86,30.18,10.0,South,4.6,-,N/A,,Mostly Cloudy,180,2013-02-04 18:56:00
11:44 AM,48.2,44.6,87,30.17,10.0,Variable,3.5,-,N/A,,Overcast,0,2013-02-04 19:44:00
11:56 AM,48.0,44.1,86,30.17,10.0,SSW,5.8,-,N/A,,Overcast,200,2013-02-04 19:56:00
12:23 PM,48.2,42.8,82,30.16,10.0,South,6.9,-,N/A,,Overcast,180,2013-02-04 20:23:00
12:56 PM,46.9,43.0,86,30.15,10.0,SSW,6.9,-,N/A,,Overcast,210,2013-02-04 20:56:00
1:32 PM,48.2,42.8,82,30.14,10.0,Calm,Calm,-,N/A,,Overcast,0,2013-02-04 21:32:00
1:56 PM,48.0,44.1,86,30.14,10.0,Calm,Calm,-,N/A,,Overcast,0,2013-02-04 21:56:00
2:07 PM,48.2,44.6,87,30.13,10.0,South,3.5,-,N/A,,Overcast,170,2013-02-04 22:07:00
2:56 PM,48.9,43.0,80,30.13,10.0,ESE,4.6,-,N/A,,Overcast,120,2013-02-04 22:56:00
3:56 PM,48.0,42.1,80,30.13,10.0,South,4.6,-,N/A,,Overcast,170,2013-02-04 23:56:00
4:19 PM,48.2,42.8,82,30.12,10.0,South,6.9,-,N/A,,Overcast,170,2013-02-05 00:19:00
4:39 PM,48.2,42.8,82,30.12,10.0,SSE,5.8,-,N/A,,Overcast,160,2013-02-05 00:39:00
4:56 PM,48.0,43.0,83,30.13,10.0,South,6.9,-,N/A,,Overcast,170,2013-02-05 00:56:00
5:03 PM,48.2,44.6,87,30.12,10.0,SSE,6.9,-,N/A,,Overcast,150,2013-02-05 01:03:00
5:30 PM,48.2,44.6,87,30.12,10.0,SE,4.6,-,N/A,,Overcast,140,2013-02-05 01:30:00
5:56 PM,48.0,44.1,86,30.12,10.0,SE,6.9,-,N/A,,Overcast,140,2013-02-05 01:56:00
6:36 PM,48.2,44.6,87,30.10,10.0,SE,11.5,-,N/A,,Overcast,140,2013-02-05 02:36:00
6:56 PM,46.9,44.1,90,30.10,10.0,SSE,11.5,-,N/A,,Overcast,150,2013-02-05 02:56:00
7:04 PM,46.4,44.6,93,30.09,10.0,SSE,9.2,-,N/A,,Overcast,150,2013-02-05 03:04:00
7:56 PM,46.9,43.0,86,30.09,10.0,SSE,10.4,-,N/A,,Overcast,150,2013-02-05 03:56:00
8:56 PM,48.0,43.0,83,30.10,10.0,SSE,6.9,-,N/A,,Overcast,160,2013-02-05 04:56:00
9:56 PM,46.9,43.0,86,30.12,10.0,SSW,9.2,-,N/A,,Overcast,200,2013-02-05 05:56:00
10:56 PM,46.9,41.0,80,30.12,10.0,SSW,11.5,-,N/A,,Overcast,200,2013-02-05 06:56:00
11:56 PM,46.9,41.0,80,30.14,10.0,SSW,11.5,19.6,N/A,,Overcast,200,2013-02-05 07:56:00